Date,TemperatureHighF,TemperatureAvgF,TemperatureLowF,DewpointHighF,DewpointAvgF,DewpointLowF,HumidityHigh,HumidityAvg,HumidityLow,PressureMaxIn,PressureMinIn,WindSpeedMaxMPH,WindSpeedAvgMPH,GustSpeedMaxMPH,PrecipitationSumIn
2013-1-1,26.8,19.5,11.5,20.8,11.1,6.1,85,70,56,30.19,30.06,12,-7,13,0.00
2013-1-2,24.6,21.7,15.1,19.2,16.8,10.9,87,81,75,30.24,30.12,15,-10,15,0.00
2013-1-3,28.2,24.5,14.7,25.2,20.4,9.1,90,84,75,30.21,30.10,16,-10,17,0.00
2013-1-4,29.7,25.5,22.3,24.1,19.6,17.8,90,78,67,30.23,30.06,25,-7,25,0.00
2013-1-5,32.2,27.3,17.6,30.4,23.8,16.0,94,87,74,30.33,30.03,16,-5,16,0.00
2013-1-6,34.9,32.4,30.6,32.2,29.0,25.7,94,87,80,30.31,29.94,17,-8,17,0.03
2013-1-7,34.5,30.7,27.5,26.4,24.4,21.9,84,78,70,30.41,30.18,23,-4,23,0.00
2013-1-8,36.3,30.4,23.2,28.4,25.5,20.5,90,82,72,30.28,30.18,12,-5,13,0.00
2013-1-9,46.0,38.5,28.6,34.3,28.1,23.2,91,68,44,30.51,30.10,32,-1,32,0.00
2013-1-10,40.5,34.1,22.5,32.9,28.4,21.2,95,80,61,30.60,30.16,18,-4,18,0.13
2013-1-11,56.8,46.9,34.0,51.8,44.6,32.7,99,92,77,30.16,29.78,17,-9,17,0.57
2013-1-12,59.7,51.5,43.2,51.4,47.9,41.0,98,88,73,29.95,29.83,14,-10,15,0.09
2013-1-13,43.2,35.2,26.8,40.6,34.3,23.7,98,97,88,30.09,29.78,18,-6,18,0.59
2013-1-14,26.8,20.4,13.5,23.5,16.0,11.7,93,83,75,30.48,30.09,18,-8,19,0.00
2013-1-15,29.1,22.7,11.1,20.8,17.8,9.5,94,82,66,30.49,30.16,6,-8,6,0.00
2013-1-16,36.7,30.5,17.4,28.4,20.6,14.5,94,69,41,30.16,29.85,24,-3,26,0.00
2013-1-17,34.2,27.1,16.7,29.1,17.8,7.0,86,68,56,30.38,30.02,23,-3,23,0.00
2013-1-18,33.8,26.9,13.1,24.1,17.6,8.2,86,68,54,30.48,29.99,29,-3,29,0.00
2013-1-19,46.4,41.6,33.4,35.8,31.2,23.9,74,66,56,30.00,29.57,37,-10,37,0.00
2013-1-20,42.3,19.5,14.4,27.9,8.9,4.3,72,63,43,30.21,29.58,46,0,46,0.00
2013-1-21,14.5,9.7,1.9,11.1,3.0,-4.7,88,74,58,30.18,30.01,20,-4,21,0.00
2013-1-22,9.0,4.6,-4.2,2.8,-3.1,-9.4,84,70,57,30.36,30.18,21,-7,22,0.00
2013-1-23,16.3,11.3,3.6,9.1,5.5,-1.7,88,77,67,30.36,30.14,15,-9,15,0.00
2013-1-24,18.0,12.2,7.0,9.9,2.8,-2.9,88,67,44,30.65,30.20,14,-15,14,0.00
2013-1-25,20.1,16.8,11.7,16.0,12.9,4.1,91,84,71,30.53,30.07,13,-6,14,0.00
2013-1-26,26.2,20.4,14.4,17.1,14.3,11.5,92,78,60,30.51,30.11,13,-7,13,0.00
2013-1-27,30.0,23.2,10.6,28.2,18.1,7.5,95,81,62,30.52,30.14,25,-3,25,0.00
2013-1-28,45.7,38.0,29.8,45.3,37.5,28.0,99,98,93,30.15,29.89,14,-6,15,0.29
2013-1-29,54.3,49.7,33.4,54.3,49.6,32.9,100,100,98,30.02,29.65,18,-18,18,0.64
2013-1-30,52.9,45.1,28.2,51.3,43.3,21.9,99,93,77,29.35,29.12,31,-9,32,0.14
2013-1-31,28.2,18.9,14.2,21.4,13.1,9.5,92,78,63,29.94,29.31,31,4,37,0.00
2013-2-1,17.2,12.9,6.6,10.9,6.7,1.0,89,76,63,30.33,29.94,23,-7,23,0.00
2013-2-2,21.7,14.8,4.3,18.7,10.9,1.6,91,84,78,30.27,30.00,13,-6,13,0.00
2013-2-3,20.5,14.2,3.0,17.1,9.0,0.5,91,80,66,30.08,29.90,19,-5,19,0.00
2013-2-4,21.9,18.8,14.5,17.8,15.6,10.9,91,87,83,30.08,29.92,8,-3,8,0.00
2013-2-5,27.0,22.3,9.9,25.5,18.5,7.7,95,86,68,30.03,29.86,14,-5,14,0.00
2013-2-6,32.2,24.5,11.8,21.2,16.7,10.0,92,73,55,30.34,30.03,15,-6,15,0.00
2013-2-7,37.8,29.9,23.2,29.1,24.2,16.7,94,79,70,30.32,29.86,22,-15,22,0.00
2013-2-8,27.9,23.5,14.2,26.8,19.7,11.8,96,85,72,30.41,29.82,25,0,25,0.00
2013-2-9,31.5,21.3,4.3,19.4,15.6,1.8,94,80,55,30.50,30.30,13,-1,13,0.00
2013-2-10,40.5,31.8,19.9,38.8,27.1,18.1,94,83,65,30.30,29.71,20,-6,20,0.27
2013-2-11,42.6,34.6,30.0,41.9,28.8,25.3,100,79,70,29.92,29.63,32,-60,35,0.00
2013-2-12,31.1,29.2,26.2,25.3,23.0,20.5,82,77,73,30.08,29.91,20,-10,20,0.00
2013-2-13,40.3,31.5,24.6,27.1,24.7,19.9,91,77,56,29.96,29.76,11,-6,11,0.00
2013-2-14,38.7,34.0,27.3,34.5,30.3,25.7,94,86,78,29.89,29.70,28,-2,28,0.00
2013-2-15,31.6,25.7,18.0,26.6,15.9,12.2,82,66,56,30.16,29.89,18,-4,19,0.00
2013-2-16,24.1,18.6,13.1,19.2,13.3,7.3,91,80,54,30.14,30.02,15,-6,16,0.00
2013-2-17,22.6,15.6,9.0,13.3,7.1,4.6,91,70,48,30.26,30.11,14,-37,14,0.00
2013-2-18,46.8,34.4,16.2,38.7,24.6,7.9,83,67,55,30.26,29.59,21,-61,22,0.00
2013-2-19,43.2,23.8,16.3,40.1,18.8,10.0,94,81,68,29.98,29.43,30,-18,30,0.04
2013-2-20,20.8,19.0,14.7,15.8,11.9,8.1,83,74,64,30.30,29.98,17,-2,25,0.00
2013-2-21,25.0,21.1,18.1,17.8,14.8,13.3,87,77,66,30.44,30.27,17,-14,17,0.00
2013-2-22,32.4,27.4,19.9,31.6,25.7,16.7,98,93,86,30.30,29.93,24,2,25,0.00
2013-2-23,32.0,28.7,22.1,29.8,21.7,18.0,92,75,64,29.96,29.90,16,1,16,0.00
2013-2-24,34.5,28.6,21.4,26.1,22.9,17.8,93,80,66,30.20,29.94,19,-1,19,0.00
2013-2-25,39.4,31.1,16.7,28.9,23.4,15.3,95,74,56,30.27,30.13,12,-14,12,0.00
2013-2-26,34.2,30.8,27.0,31.6,24.9,20.8,97,79,71,30.14,29.63,26,-20,26,0.07
2013-2-28,32.4,29.7,28.0,31.8,26.3,23.9,98,87,84,30.01,29.58,15,-112,15,0.16
2013-3-1,28.0,24.9,23.5,24.4,20.4,18.9,88,83,78,30.16,30.01,14,-8,14,0.00
2013-3-2,25.0,23.2,20.8,20.3,18.6,16.5,88,82,78,30.13,30.09,11,-1,11,0.00
2013-3-3,28.2,22.0,14.7,17.1,14.8,11.5,89,74,57,30.12,30.04,16,-9,16,0.00
2013-3-4,35.4,24.1,10.9,17.6,14.5,8.6,91,68,43,30.20,30.12,9,-10,9,0.01
2013-3-5,35.2,27.9,17.1,24.8,21.1,13.8,89,76,62,30.17,29.87,22,-6,22,0.00
2013-3-6,39.4,32.7,25.3,30.0,27.2,21.7,88,80,67,30.25,29.89,14,-20,14,0.00
2013-3-7,33.8,30.3,22.5,30.0,24.4,18.0,90,79,63,30.44,30.23,10,-77,10,0.00
2013-3-8,44.2,32.7,20.7,28.4,23.9,17.1,88,71,51,30.54,30.44,10,-19,10,0.00
2013-3-9,41.2,35.9,26.6,32.0,29.3,22.8,94,77,65,30.44,30.05,17,1,17,0.00
2013-3-10,61.3,52.1,36.7,46.9,39.5,31.8,83,63,53,30.05,29.81,22,-8,22,0.00
2013-3-11,56.3,47.2,36.3,48.7,42.1,32.2,95,83,60,29.81,29.47,24,-36,24,0.33
2013-3-12,36.3,32.4,28.8,32.2,28.5,24.8,94,85,77,29.95,29.70,22,2,22,0.33
2013-3-13,31.1,27.4,23.0,27.3,19.7,13.8,94,73,55,30.24,29.89,24,-1,24,0.00
2013-3-14,39.9,30.7,20.5,21.7,18.6,13.3,82,62,45,30.31,30.10,16,-4,16,0.00
2013-3-15,37.9,34.1,31.3,33.6,28.8,19.0,96,81,58,30.11,29.89,14,-59,15,0.03
2013-3-16,32.4,28.2,25.9,31.6,25.1,20.8,97,88,77,30.08,29.81,11,-37,12,0.00
2013-3-17,31.5,25.4,20.7,23.7,16.2,11.7,84,68,52,30.31,30.08,17,-25,17,0.00
2013-3-18,26.4,22.6,20.7,21.7,18.3,15.3,86,83,79,30.21,30.03,16,6,16,0.00
2013-3-19,30.9,26.6,25.5,25.5,19.0,16.7,80,73,69,29.97,29.68,25,-198,25,0.00
2013-3-20,26.4,22.5,15.3,18.3,14.2,9.5,83,70,59,29.99,29.93,19,-1,19,0.00
2013-3-21,30.0,23.7,14.2,23.9,19.1,10.6,89,83,72,29.98,29.90,17,-14,21,0.01
2013-3-22,37.9,30.1,24.1,23.9,21.0,17.1,81,69,55,30.06,29.98,17,-8,17,0.00
2013-3-23,36.5,28.8,19.9,25.2,22.5,18.0,94,77,61,30.15,30.05,10,-10,10,0.00
2013-3-24,35.8,29.3,20.1,27.3,23.1,18.3,94,78,59,30.08,29.66,19,-32,19,0.00
2013-3-25,39.0,34.2,30.0,28.8,26.4,23.5,81,73,62,29.96,29.60,20,2,20,0.00
2013-3-26,41.2,35.7,31.3,31.6,29.3,26.4,91,78,62,30.15,29.95,16,1,16,0.00
2013-3-27,45.3,37.9,28.8,30.6,27.1,24.8,91,66,48,30.23,30.14,19,2,19,0.00
2013-3-28,50.4,40.5,28.9,28.9,26.1,23.2,85,58,39,30.30,30.23,20,-8,20,0.00
2013-3-29,53.1,39.9,28.8,25.9,22.8,19.8,75,53,30,30.31,30.22,10,-10,10,0.00
2013-3-30,54.9,43.7,23.5,32.0,24.8,17.4,84,51,25,30.24,29.92,15,-5,15,0.00
2013-3-31,56.8,46.4,37.9,43.2,34.8,29.1,89,65,42,29.92,29.63,20,-24,20,0.01
2013-4-1,37.9,30.7,24.3,29.7,17.5,11.7,82,58,40,30.13,29.71,22,0,22,0.00
2013-4-2,38.8,30.7,23.2,18.9,15.1,12.7,82,54,36,30.29,30.13,21,-6,21,0.00
2013-4-3,42.8,31.8,23.5,18.3,14.2,10.8,71,50,29,30.47,30.28,17,-4,17,0.00
2013-4-4,55.8,42.0,26.1,21.2,17.5,13.3,65,40,22,30.40,29.96,17,-4,17,0.00
2013-4-5,46.4,40.2,30.7,30.7,21.4,16.3,78,49,31,30.23,29.96,15,-4,15,0.00
2013-4-6,49.5,40.0,28.6,30.0,24.5,17.8,81,55,38,30.27,29.77,24,4,24,0.00
2013-4-7,56.7,48.7,35.4,46.4,36.8,27.9,85,64,40,30.05,29.63,27,-2,27,0.00
2013-4-8,65.1,46.2,34.9,55.9,41.2,30.7,93,83,58,30.05,29.72,29,3,33,0.17
2013-4-9,53.8,46.7,41.5,46.9,43.4,39.7,96,88,75,30.09,29.90,16,0,18,0.01
2013-4-10,44.2,41.0,37.4,43.5,40.1,36.9,98,97,93,30.04,29.86,17,-4,20,0.45
2013-4-11,38.3,36.6,35.2,37.6,35.6,34.0,98,96,94,30.02,29.62,34,-4,34,0.75
2013-4-12,40.6,38.5,34.2,39.2,35.7,32.7,98,90,77,29.81,29.59,17,-4,20,0.32
2013-4-13,40.8,37.4,34.9,37.6,30.5,26.2,93,76,62,30.03,29.81,23,-2,23,0.02
2013-4-14,46.9,39.0,31.3,38.1,32.8,26.1,89,79,68,30.15,29.95,19,-7,19,0.04
2013-4-15,66.7,55.7,38.7,55.8,47.4,34.2,93,75,61,29.99,29.88,22,-2,22,0.05
2013-4-16,61.5,53.1,45.5,54.3,41.6,34.3,97,67,44,30.24,29.87,15,-5,16,0.05
2013-4-17,56.3,47.1,39.7,43.9,37.1,30.7,94,70,48,30.35,29.99,25,-1,25,0.89
2013-4-18,76.8,58.3,43.9,66.0,53.5,42.1,95,85,67,30.00,29.58,33,-8,33,0.03
2013-4-28,53.1,53.1,53.1,52.7,52.7,52.7,99,99,99,29.86,29.86,3,-498,33,0.00
2013-4-29,70.5,62.7,52.3,55.2,54.2,52.3,100,75,56,29.95,29.89,13,-7,13,0.01
2013-4-30,72.7,62.0,52.7,57.7,54.8,50.9,95,78,59,30.08,29.94,23,-7,23,0.04
2013-5-1,79.7,68.5,53.2,60.6,55.5,50.9,96,65,44,30.23,30.07,20,-3,20,0.00
2013-5-2,77.0,66.7,54.1,58.1,51.0,41.2,85,59,41,30.24,30.12,22,-6,22,0.00
2013-5-3,75.0,66.1,57.4,58.3,45.3,34.2,62,49,24,30.12,30.05,25,6,25,0.00
2013-5-4,70.0,62.4,54.3,48.7,42.7,37.4,73,50,33,30.12,30.05,23,-4,23,0.00
2013-5-5,70.7,61.0,50.5,45.9,39.4,31.5,73,47,25,30.11,30.02,22,1,22,0.00
2013-5-6,72.9,61.1,46.4,50.7,44.2,38.5,76,55,41,30.07,29.98,17,-4,17,0.00
2013-5-7,74.5,63.1,47.3,54.9,49.1,40.5,92,62,40,30.06,29.99,21,-4,21,0.00
2013-5-8,79.3,64.7,50.9,55.0,50.4,46.0,95,64,33,30.02,29.93,13,-2,13,0.00
2013-5-9,80.8,67.2,47.8,57.4,51.2,45.7,99,61,33,29.97,29.88,11,-2,11,0.00
2013-5-10,67.8,54.6,41.7,62.2,51.1,39.4,98,88,71,29.91,29.74,12,-4,18,0.21
2013-5-11,61.3,46.8,37.9,46.8,40.8,33.3,96,81,50,29.93,29.74,26,-7,26,0.00
2013-5-12,46.8,39.8,28.8,34.2,29.4,24.8,89,67,49,30.13,29.89,26,-5,26,0.00
2013-5-13,54.3,41.5,26.6,32.7,26.2,21.7,95,59,29,30.21,30.12,15,-5,15,0.00
2013-5-14,78.3,59.5,42.8,56.3,42.3,30.4,77,54,39,30.12,29.73,21,-4,21,0.00
2013-5-15,81.0,70.2,55.0,59.5,50.6,43.5,88,53,31,29.79,29.59,20,1,22,0.00
2013-5-16,81.3,67.3,45.1,49.6,46.0,39.6,92,50,28,30.04,29.78,17,-9,17,0.00
2013-5-17,72.3,61.2,45.9,47.7,43.8,39.2,83,55,37,30.15,30.03,16,0,16,0.00
2013-5-18,78.6,66.2,53.4,51.6,47.2,43.2,81,53,33,30.14,30.02,18,-4,18,0.00
2013-5-19,86.2,69.8,48.9,65.3,58.2,46.8,93,69,45,30.04,29.87,13,-5,13,0.00
2013-5-20,89.8,76.6,61.2,70.9,65.1,59.2,96,70,44,29.92,29.75,21,0,21,0.00
2013-5-21,82.8,75.5,65.3,68.4,63.7,60.4,91,68,48,29.81,29.69,19,-8,20,0.00
2013-5-22,79.3,68.6,60.6,65.5,62.8,59.0,98,83,52,29.73,29.60,24,-1,25,0.14
2013-5-23,62.4,50.7,41.0,60.1,49.3,40.3,99,95,86,30.17,29.69,12,-9,14,0.12
2013-5-24,54.9,45.3,37.2,42.4,37.3,33.8,98,75,50,30.38,30.17,15,-5,15,0.00
2013-5-25,65.7,50.2,31.3,42.8,37.3,30.6,99,66,36,30.43,30.31,9,-2,10,0.00
2013-5-26,69.6,54.0,32.9,47.5,37.1,31.3,99,59,28,30.37,30.24,11,-10,11,0.00
2013-5-27,58.8,49.5,39.9,50.4,44.1,36.1,99,83,50,30.28,30.00,18,4,18,0.53
2013-5-28,75.4,63.3,50.5,71.8,61.1,50.2,100,94,77,30.00,29.81,15,3,15,0.53
2013-5-29,81.1,73.2,66.0,68.7,65.3,61.9,94,77,58,29.99,29.76,19,3,19,0.23
2013-5-30,86.0,72.4,64.2,71.6,66.1,61.9,96,81,58,30.05,29.95,17,2,17,0.62
2013-5-31,80.4,71.6,66.7,69.8,67.5,65.1,99,87,68,29.98,29.81,23,3,23,0.62
2013-6-1,77.9,69.8,62.4,68.2,64.5,61.9,99,84,65,29.84,29.67,17,-11,22,0.31
2013-6-2,68.5,65.5,61.7,64.2,61.2,58.6,98,86,74,29.76,29.65,19,-6,19,0.11
2013-6-10,68.5,66.4,65.1,67.1,65.8,64.8,100,98,93,29.78,29.73,5,0,15,0.32
2013-6-11,80.4,70.9,62.2,69.8,65.1,61.9,100,83,60,29.89,29.78,11,-2,12,0.00
2013-6-12,76.5,68.0,59.7,70.3,65.5,59.2,100,92,78,29.93,29.63,17,1,17,0.36
2013-6-13,76.8,68.1,59.4,64.2,60.3,55.8,100,78,50,29.94,29.54,15,-17,15,0.92
2013-6-14,77.7,64.9,54.9,59.9,55.6,51.3,97,74,42,30.08,29.93,8,1,8,0.01
2013-6-15,79.2,67.1,51.4,63.7,59.4,50.5,99,78,54,30.09,29.89,17,-6,17,0.00
2013-6-16,80.6,69.3,56.7,67.8,61.7,53.1,99,79,44,29.89,29.77,16,3,16,0.44
2013-6-17,85.8,72.6,56.1,64.4,59.1,54.1,95,66,39,29.96,29.82,17,-6,17,0.16
2013-6-18,72.0,61.9,46.6,59.2,52.1,43.2,98,73,42,30.08,29.87,12,1,12,0.20
2013-6-19,75.9,61.3,42.3,56.1,49.6,41.5,99,69,39,30.18,30.07,11,-2,11,0.00
2013-6-20,83.5,67.9,47.7,59.9,54.1,46.9,99,65,38,30.22,30.14,11,-6,11,0.00
2013-6-21,86.4,72.1,54.0,67.8,60.2,53.1,99,70,45,30.21,30.04,14,2,14,0.00
2013-6-22,85.8,75.9,69.4,75.6,67.6,58.3,90,76,65,30.08,29.96,14,2,14,0.00
2013-6-23,89.1,79.8,67.6,71.6,68.6,65.1,97,70,51,30.05,29.95,17,-1,17,0.00
2013-6-24,87.6,77.3,66.0,72.5,68.9,63.3,98,76,57,30.04,29.91,12,-22,14,0.20
2013-6-25,84.4,73.1,64.0,73.9,68.9,62.6,99,88,65,29.97,29.81,13,-14,13,1.07
2013-6-26,82.8,72.6,63.9,73.4,68.5,63.9,100,88,66,29.86,29.73,15,2,15,0.11
2013-6-27,83.5,70.9,64.0,73.8,68.3,63.7,100,92,65,29.75,29.61,16,-10,16,1.19
2013-6-28,72.9,65.8,63.3,67.6,64.8,63.3,100,97,81,29.63,29.56,10,-29,10,0.03
2013-7-13,82.9,75.6,64.9,66.4,63.9,59.0,97,70,46,30.22,30.15,11,2,11,0.00
2013-7-14,89.1,77.3,60.8,74.3,68.8,60.3,99,77,54,30.25,30.19,10,-2,11,0.00
2013-7-15,92.3,79.2,66.9,78.3,73.3,66.2,100,84,59,30.28,30.20,8,1,9,0.00
2013-7-16,91.9,81.9,73.2,80.1,75.6,71.6,99,82,62,30.29,30.22,6,-6,8,0.00
2013-7-17,92.7,81.0,69.3,79.7,75.0,68.9,100,83,61,30.27,30.13,11,-13,11,0.00
2013-7-18,91.8,82.7,70.3,78.3,74.2,68.5,99,77,50,30.14,29.94,14,-6,14,0.00
2013-7-19,91.6,84.0,70.3,76.8,73.8,66.7,97,73,54,29.94,29.69,29,-3,29,0.29
2013-7-20,86.4,75.5,64.8,70.5,66.0,60.4,99,75,47,29.91,29.70,20,-6,20,0.30
2013-7-21,85.3,72.5,58.8,68.0,63.2,57.0,98,75,50,30.00,29.91,6,-7,6,0.00
2013-7-22,82.6,73.0,66.4,69.8,66.6,63.9,95,81,59,29.94,29.75,14,-6,14,0.00
2013-7-23,81.3,69.6,59.2,72.7,64.8,52.0,98,85,69,29.89,29.66,12,-2,12,1.21
2013-7-24,72.3,62.1,52.2,56.7,52.9,48.7,96,73,51,30.06,29.89,11,-3,11,0.00
2013-7-25,77.5,64.5,47.1,60.4,54.1,46.6,100,72,43,30.12,30.06,9,-3,9,0.00
2013-7-26,78.4,68.6,54.5,62.6,58.9,52.5,98,73,50,30.10,29.90,12,-6,12,0.02
2013-7-27,71.2,63.3,53.1,66.0,61.2,50.7,100,93,80,29.90,29.73,15,-6,15,1.15
2013-7-28,65.5,56.6,48.6,55.8,52.2,47.5,98,86,67,30.00,29.83,17,-1,17,0.01
2013-7-29,69.3,59.7,52.7,59.0,54.7,51.6,98,84,64,30.20,29.98,13,-6,13,0.00
2013-7-30,79.5,65.5,47.8,64.6,57.5,47.3,100,78,48,30.25,30.12,9,-3,9,0.00
2013-7-31,74.7,67.5,62.1,67.8,65.0,61.0,98,92,74,30.12,29.88,14,-6,14,0.30
2013-8-1,77.2,67.7,62.2,64.9,62.9,59.4,98,86,56,29.92,29.87,10,-13,13,0.00
2013-8-2,72.0,66.0,52.9,64.9,61.4,52.5,99,86,67,29.93,29.85,16,-7,16,0.01
2013-8-3,78.6,68.0,57.2,64.4,58.8,53.1,100,75,45,30.06,29.92,9,-6,10,0.00
2013-8-4,73.8,62.9,53.6,59.5,55.4,51.8,96,78,52,30.16,30.06,8,-6,11,0.00
2013-8-5,71.6,62.8,50.4,61.2,55.8,49.3,98,79,55,30.12,29.97,9,1,10,0.00
2013-8-6,78.4,69.1,61.5,68.7,64.2,59.0,95,85,67,29.97,29.89,12,-9,12,0.01
2013-8-7,82.8,71.5,65.1,73.6,68.1,63.3,99,89,71,29.93,29.81,16,-2,16,0.20
2013-8-8,77.2,69.3,61.5,68.9,63.6,59.4,95,83,63,30.01,29.89,10,-15,10,0.00
2013-8-9,79.7,68.8,56.5,63.5,59.6,55.6,99,75,47,30.02,29.94,13,-6,13,0.00
2013-8-10,79.2,67.7,58.8,63.5,60.4,56.8,100,79,54,30.13,30.02,8,-7,8,0.00
2013-8-11,78.4,67.9,54.0,64.2,60.1,53.4,99,78,53,30.12,30.03,9,-3,12,0.00
2013-8-12,72.1,65.4,62.4,69.1,63.9,60.4,99,95,86,30.06,29.85,9,-7,9,1.06
2013-8-13,66.9,60.1,51.3,63.7,52.4,45.9,99,77,56,30.08,29.83,14,-10,15,0.00
2013-8-14,70.9,57.9,48.4,57.0,50.5,45.3,97,78,50,30.18,30.08,8,-10,8,0.00
2013-8-15,75.0,60.6,45.3,59.4,52.3,44.8,100,77,47,30.19,30.10,8,-11,9,0.00
2013-8-16,80.2,65.4,50.0,61.5,55.9,49.5,99,75,44,30.22,30.13,6,-3,6,0.00
2013-8-17,79.7,66.0,50.5,62.6,56.6,49.8,100,76,41,30.28,30.19,12,-2,12,0.00
2013-8-18,82.9,67.9,52.9,66.4,58.8,52.3,99,76,45,30.23,30.11,10,-7,10,0.00
2013-8-19,81.5,68.5,53.8,66.4,59.0,52.5,99,76,43,30.12,30.04,12,-3,12,0.00
2013-8-20,85.8,72.5,56.1,70.5,64.4,55.6,99,78,52,30.14,30.07,10,-7,11,0.00
2013-8-21,85.5,75.4,63.3,71.8,67.5,62.1,97,78,61,30.13,29.98,13,-6,13,0.00
2013-8-22,78.3,72.3,68.9,68.9,67.3,65.7,91,85,70,30.03,29.93,17,2,17,0.00
2013-9-1,82.0,75.2,70.0,73.9,70.9,67.8,97,87,72,29.79,29.71,9,1,10,0.00
2013-9-2,74.7,67.4,57.6,70.0,60.7,51.8,97,80,63,29.92,29.71,14,-5,14,0.00
2013-9-3,74.5,63.2,55.6,59.0,54.8,50.7,96,75,53,30.03,29.91,11,-6,11,0.00
2013-9-4,79.3,67.3,52.0,64.4,59.5,51.4,100,78,55,30.09,30.01,15,-5,15,0.00
2013-9-5,71.1,61.2,49.3,62.2,51.9,47.5,94,74,48,30.27,30.08,9,-7,9,0.00
2013-9-6,76.1,61.6,42.4,58.3,50.2,41.5,99,70,39,30.29,30.07,9,-3,9,0.00
2013-9-7,80.1,68.8,56.3,71.2,62.3,48.2,96,80,65,30.08,29.89,14,-10,14,0.04
2013-9-8,73.0,66.5,52.9,66.9,58.8,49.8,95,77,56,30.08,29.92,12,-2,12,0.04
2013-9-9,76.3,64.5,50.4,71.6,62.4,48.9,98,93,84,30.07,29.89,10,-6,10,0.18
2013-9-10,91.8,81.3,70.2,75.0,70.9,66.7,97,73,45,30.00,29.88,16,-9,17,0.00
2013-9-11,90.1,77.3,66.9,75.2,70.0,65.1,100,80,58,30.01,29.88,28,-6,30,0.32
2013-9-12,77.2,66.0,54.3,66.9,59.0,46.2,100,81,49,29.97,29.83,18,-6,18,0.06
2013-9-13,58.1,51.5,38.8,48.2,44.6,37.8,97,78,61,30.16,29.96,10,-9,11,0.00
2013-9-14,68.4,53.0,36.7,51.8,43.3,36.1,99,74,39,30.22,30.11,11,-11,11,0.00
2013-9-15,61.9,54.8,45.3,56.5,50.8,43.3,98,87,67,30.15,30.07,4,-11,9,0.08
2013-9-16,62.4,53.5,40.6,53.4,48.4,39.9,98,84,59,30.39,30.14,9,-3,9,0.00
2013-9-17,66.0,51.7,35.4,52.2,45.3,34.9,99,81,48,30.43,30.22,14,-2,14,0.00
2013-9-18,74.8,60.9,42.6,60.3,52.9,41.9,99,78,47,30.23,30.05,12,-10,14,0.00
2013-9-19,79.3,69.2,56.7,69.8,64.8,55.6,99,87,71,30.05,29.89,12,-10,12,0.00
2013-9-20,79.3,70.7,63.9,72.1,67.9,63.1,99,91,74,29.89,29.71,14,-6,15,0.24
2013-9-21,67.3,60.7,52.5,64.0,53.7,44.4,99,79,53,29.89,29.68,16,-10,16,0.03
2013-9-22,57.6,50.7,39.0,45.3,42.6,38.1,97,75,60,30.10,29.89,14,-10,14,0.00
2013-9-23,61.7,48.8,37.2,48.9,43.1,36.7,100,82,55,30.22,30.10,11,-7,11,0.00
2013-9-24,66.6,52.9,38.7,52.2,46.7,38.1,100,82,57,30.17,30.01,12,-3,12,0.00
2013-9-25,70.5,55.4,42.6,57.6,49.9,41.5,100,84,54,30.02,29.96,14,-10,14,0.00
2013-9-26,75.7,58.3,40.5,57.9,49.4,39.9,100,77,40,30.16,30.02,11,-7,11,0.00
2013-9-27,74.3,59.6,42.6,58.6,52.6,42.1,99,80,52,30.24,30.16,14,-13,14,0.00
2013-9-28,76.3,63.4,48.2,62.2,55.9,47.5,100,79,48,30.21,30.02,15,-5,15,0.00
2013-9-29,62.4,59.9,57.4,61.9,57.8,53.4,99,93,78,30.02,29.96,9,-18,9,0.16
2013-9-30,70.3,61.7,52.2,59.2,54.9,50.2,100,80,52,30.02,29.93,12,-14,12,0.00
2013-10-1,71.2,61.5,48.4,64.0,58.6,47.8,100,91,76,30.02,29.94,12,-6,17,0.01
2013-10-2,79.3,65.1,51.1,61.0,54.1,46.6,99,72,33,30.08,29.95,8,-7,8,0.00
2013-10-3,77.4,66.3,50.7,68.5,62.2,49.8,97,88,73,30.06,29.93,15,-6,15,0.00
2013-10-4,79.3,70.2,63.7,69.3,65.9,62.2,97,87,69,30.02,29.93,8,-14,13,0.00
2013-10-5,73.2,67.7,62.4,69.8,66.2,61.9,100,95,85,30.02,29.83,13,-1,13,0.17
2013-10-6,69.3,63.0,52.5,68.2,61.6,52.0,100,96,86,29.83,29.61,24,-6,27,0.25
2013-10-7,58.5,50.1,39.7,53.4,46.4,39.0,99,87,66,30.15,29.68,19,-9,19,0.01
2013-10-8,67.1,53.7,38.8,51.4,44.4,38.7,100,74,46,30.30,30.15,13,-2,13,0.00
2013-10-9,69.3,54.7,41.2,55.6,47.1,40.5,99,78,47,30.33,30.23,14,-10,17,0.00
2013-10-10,70.9,54.9,39.7,57.2,45.8,39.2,100,76,40,30.24,30.14,12,-10,12,0.00
2013-10-11,71.8,55.3,37.8,54.3,46.5,37.0,100,76,43,30.17,30.08,10,-7,11,0.00
2013-10-12,75.6,61.8,44.6,61.9,55.1,44.1,100,81,44,30.11,30.04,11,-1,16,0.00
2013-10-13,66.4,57.6,44.1,59.2,46.3,39.0,99,70,38,30.36,30.10,13,-10,13,0.00
2013-10-14,63.9,51.4,40.8,46.4,43.1,39.7,99,76,48,30.42,30.27,9,-3,11,0.00
2013-10-15,62.8,54.6,37.8,60.6,52.6,37.2,100,93,83,30.27,29.83,17,-8,17,0.05
2013-10-16,61.3,53.8,50.4,60.4,48.7,45.1,98,83,68,29.92,29.83,14,-8,21,0.00
2013-10-17,50.5,48.7,46.0,48.7,46.8,44.1,97,93,88,29.91,29.76,17,-6,17,0.27
2013-10-18,61.3,51.8,40.5,47.7,43.1,39.7,97,74,47,29.93,29.86,24,-5,24,0.01
2013-10-19,46.2,42.1,37.0,43.5,40.1,35.6,98,93,85,29.90,29.76,23,-6,23,0.16
2013-10-20,57.9,48.9,37.6,45.9,41.3,35.6,96,76,52,29.94,29.85,16,-9,16,0.02
2013-10-21,54.3,48.1,39.9,48.2,42.5,33.8,92,81,67,29.87,29.80,18,-5,18,0.06
2013-10-22,48.0,42.0,32.2,34.0,31.6,27.5,86,67,52,29.93,29.87,21,-9,21,0.00
2013-10-23,45.7,38.2,30.9,37.4,30.9,25.7,97,77,46,29.96,29.84,18,-6,18,0.00
2013-10-24,45.9,37.5,30.6,34.0,31.0,26.6,94,79,47,30.22,29.95,14,-4,20,0.00
2013-10-25,44.8,38.5,30.6,35.8,31.0,27.9,95,75,59,30.35,30.10,15,-5,15,0.00
2013-10-26,49.3,41.6,34.5,39.0,34.0,28.4,96,75,59,30.10,29.80,24,0,24,0.06
2013-10-27,52.3,42.3,32.2,36.3,32.7,28.9,95,70,48,30.09,30.00,15,-2,15,0.00
2013-10-28,49.6,40.9,32.4,40.5,34.6,28.6,94,78,67,30.43,30.08,9,-7,10,0.00
2013-10-29,49.5,42.7,34.2,38.1,34.7,30.2,90,74,61,30.46,30.25,11,-16,11,0.00
2013-10-30,63.0,50.3,31.5,51.6,42.7,29.8,99,77,52,30.25,29.93,14,-6,14,0.15
2013-10-31,60.4,58.0,52.5,59.4,57.1,51.6,99,97,95,29.94,29.35,21,-8,21,0.93
2013-11-1,49.5,46.3,44.4,42.8,41.3,39.7,92,83,72,29.68,29.49,25,-11,25,0.94
2013-11-2,45.5,41.5,31.3,43.5,38.8,29.8,97,90,82,30.14,29.67,13,-7,13,0.05
2013-11-3,43.0,36.4,29.3,36.9,32.1,28.6,97,85,68,30.49,30.14,12,-6,12,0.05
2013-11-4,47.5,41.7,33.1,37.0,32.4,27.9,89,71,48,30.50,30.32,22,-2,22,0.00
2013-11-5,53.1,50.0,43.0,47.8,44.6,36.9,90,82,73,30.38,30.15,12,-2,12,0.00
2013-11-6,55.2,50.4,40.6,52.3,47.4,37.9,94,89,73,30.15,29.79,23,-22,23,0.07
2013-11-7,43.9,37.8,31.8,33.8,29.4,25.7,95,73,55,30.16,30.09,21,-4,21,0.07
2013-11-8,43.5,36.5,30.7,31.1,28.1,25.3,94,73,50,30.31,30.15,15,-6,15,0.04
2013-11-9,54.7,48.1,35.8,42.1,37.7,30.2,92,68,57,30.19,29.82,33,-1,33,0.01
2013-11-10,46.0,40.9,32.2,40.5,31.4,27.9,92,69,57,30.29,29.91,27,-10,27,0.01
2013-11-11,42.1,33.8,26.2,37.9,29.9,20.8,95,86,75,30.37,30.05,17,-9,17,0.18
2013-11-12,31.6,27.6,18.5,22.3,18.7,14.4,86,69,56,30.58,30.37,17,0,17,0.00
2013-11-13,39.9,31.1,18.1,24.6,17.6,10.4,90,60,30,30.58,30.19,23,2,24,0.00
2013-11-14,50.9,40.9,29.5,27.9,23.5,17.8,68,50,37,30.20,30.01,21,-3,21,0.00
2013-11-15,50.7,43.9,35.8,31.1,28.9,23.7,71,56,46,30.09,30.01,18,-1,18,0.00
2013-11-16,55.9,50.1,36.5,53.1,45.7,30.0,91,85,71,30.11,29.77,21,-4,21,0.01
2013-11-17,61.9,56.2,46.0,59.5,52.9,38.8,96,89,72,29.78,29.23,42,5,43,0.51
2013-11-18,46.0,36.7,33.4,39.7,28.1,24.1,79,71,65,30.17,29.52,30,0,33,0.00
2013-11-19,41.0,36.0,30.9,24.6,22.4,19.9,69,58,48,30.40,30.17,14,-13,17,0.00
2013-11-27,25.5,22.1,17.2,15.4,12.7,10.0,78,67,54,30.25,29.99,21,6,21,0.00
2013-11-28,27.1,21.8,15.4,20.8,15.9,10.6,90,78,66,30.48,30.25,13,-3,13,0.00
2013-11-29,34.3,25.3,12.7,23.9,19.1,10.8,94,78,54,30.71,30.48,14,-7,14,0.00
2013-11-30,44.6,35.9,26.8,29.3,26.8,21.2,83,70,54,30.57,30.11,13,-5,16,0.00
2013-12-1,41.7,35.8,30.4,34.7,31.2,25.9,94,84,72,30.11,30.01,10,-7,10,0.00
2013-12-2,37.9,31.7,24.3,30.6,23.9,19.6,93,73,55,30.01,29.92,8,-14,8,0.00
2013-12-3,37.4,34.1,24.6,36.1,32.4,20.8,96,93,85,29.95,29.87,14,-9,15,0.04
2013-12-4,57.6,49.2,36.9,54.7,47.0,35.8,97,92,89,29.92,29.62,19,-4,19,0.01
2013-12-5,57.4,35.9,28.9,54.5,28.2,21.6,92,73,65,30.18,29.61,24,-3,24,0.00
2013-12-6,28.9,23.6,19.0,22.5,16.0,12.0,77,72,68,30.45,30.14,14,-10,14,0.00
2013-12-7,22.8,18.2,9.7,11.8,9.6,6.4,87,69,57,30.67,30.45,10,-15,17,0.00
2013-12-8,27.9,20.8,8.2,26.6,16.7,5.5,95,84,69,30.64,29.99,20,-8,20,0.00
2013-12-9,28.0,23.6,18.0,26.8,18.2,10.2,95,80,70,30.13,29.94,21,-12,28,0.00
2013-12-10,20.5,17.7,9.1,15.4,9.4,1.2,84,70,48,30.25,29.99,25,-2,25,0.00
2013-12-11,21.4,14.9,3.7,17.6,9.0,-0.8,89,77,67,30.51,30.25,17,-9,17,0.00
2013-12-12,9.3,3.4,1.0,5.7,-0.0,-2.7,87,85,83,30.50,30.45,5,-137,5,0.00
2013-12-15,17.1,17.1,17.1,15.4,15.4,15.4,93,93,93,29.80,29.78,0,-999,0,0.00
2013-12-19,40.5,38.2,36.3,33.8,32.7,32.0,85,81,77,29.98,29.93,4,-606,4,0.10
2013-12-21,31.6,31.6,31.6,31.5,31.5,31.5,99,99,99,29.81,29.80,3,-498,3,0.36
2013-12-22,35.2,33.4,32.0,33.6,32.0,30.7,96,95,94,29.98,29.80,6,-586,6,0.00